Time,TemperatureF,DewpointF,PressureIn,WindDirection,WindDirectionDegrees,WindSpeedMPH,WindSpeedGustMPH,Humidity,HourlyPrecipIn,Conditions,Clouds,dailyrainin,SoftwareType,DateUTC
2013-08-11 00:05:00,68.9,67.1,30.11,West,279,0.0,0.0,94,0.00,,,0.00,Wunderground v.1.15,2013-08-11 04:05:00,
2013-08-11 00:10:00,69.0,67.2,30.11,West,279,0.0,0.0,94,0.00,,,0.00,Wunderground v.1.15,2013-08-11 04:10:00,
2013-08-11 00:15:00,69.0,67.2,30.11,West,279,0.0,0.0,94,0.00,,,0.00,Wunderground v.1.15,2013-08-11 04:15:00,
2013-08-11 00:20:00,69.0,67.2,30.11,West,279,0.0,0.0,94,0.00,,,0.00,Wunderground v.1.15,2013-08-11 04:20:00,
2013-08-11 00:25:00,69.0,67.2,30.11,West,279,0.0,0.0,94,0.00,,,0.00,Wunderground v.1.15,2013-08-11 04:25:00,
2013-08-11 00:30:00,69.0,67.2,30.11,West,279,0.0,0.0,94,0.00,,,0.00,Wunderground v.1.15,2013-08-11 04:30:00,
2013-08-11 00:40:00,69.1,67.3,30.10,West,279,0.0,0.0,94,0.00,,,0.00,Wunderground v.1.15,2013-08-11 04:40:00,
2013-08-11 00:45:00,69.1,67.3,30.11,West,279,0.0,0.0,94,0.00,,,0.00,Wunderground v.1.15,2013-08-11 04:45:00,
2013-08-11 00:55:00,69.1,67.3,30.11,West,279,0.0,0.0,94,0.00,,,0.00,Wunderground v.1.15,2013-08-11 04:55:00,
2013-08-11 01:00:00,69.2,67.4,30.11,West,279,0.0,0.0,94,0.00,,,0.00,Wunderground v.1.15,2013-08-11 05:00:00,
2013-08-11 01:10:00,69.2,67.4,30.11,West,279,0.0,0.0,94,0.00,,,0.00,Wunderground v.1.15,2013-08-11 05:10:00,
2013-08-11 01:15:00,69.2,67.4,30.11,West,279,0.0,0.0,94,0.00,,,0.00,Wunderground v.1.15,2013-08-11 05:15:00,
2013-08-11 01:25:00,69.2,67.4,30.11,West,279,0.0,0.0,94,0.00,,,0.00,Wunderground v.1.15,2013-08-11 05:25:00,
2013-08-11 01:30:00,69.2,67.4,30.11,West,279,0.0,0.0,94,0.00,,,0.00,Wunderground v.1.15,2013-08-11 05:30:00,
2013-08-11 01:35:00,69.1,67.3,30.11,West,279,0.0,0.0,94,0.00,,,0.00,Wunderground v.1.15,2013-08-11 05:35:00,
2013-08-11 01:40:00,69.0,67.2,30.11,West,279,0.0,0.0,94,0.00,,,0.00,Wunderground v.1.15,2013-08-11 05:40:00,
2013-08-11 01:45:00,68.9,67.1,30.11,West,279,0.0,0.0,94,0.00,,,0.00,Wunderground v.1.15,2013-08-11 05:45:00,
2013-08-11 01:55:00,68.8,67.0,30.11,West,279,0.0,0.0,94,0.00,,,0.00,Wunderground v.1.15,2013-08-11 05:55:00,
2013-08-11 02:00:00,68.7,66.9,30.11,West,279,0.0,0.0,94,0.00,,,0.00,Wunderground v.1.15,2013-08-11 06:00:00,
2013-08-11 02:10:00,68.5,66.7,30.11,West,279,0.0,0.0,94,0.00,,,0.00,Wunderground v.1.15,2013-08-11 06:10:00,
2013-08-11 02:20:00,68.4,66.6,30.11,West,279,0.0,0.0,94,0.00,,,0.00,Wunderground v.1.15,2013-08-11 06:20:00,
2013-08-11 02:25:00,68.4,66.6,30.11,West,279,0.0,0.0,94,0.00,,,0.00,Wunderground v.1.15,2013-08-11 06:25:00,
2013-08-11 02:30:00,68.3,66.5,30.11,West,279,0.0,0.0,94,0.00,,,0.00,Wunderground v.1.15,2013-08-11 06:30:00,
2013-08-11 02:40:00,68.3,66.5,30.12,West,279,0.0,0.0,94,0.00,,,0.00,Wunderground v.1.15,2013-08-11 06:40:00,
2013-08-11 02:50:00,68.3,66.5,30.11,West,279,0.0,0.0,94,0.00,,,0.00,Wunderground v.1.15,2013-08-11 06:50:00,
2013-08-11 02:55:00,68.3,66.5,30.11,West,279,0.0,0.0,94,0.00,,,0.00,Wunderground v.1.15,2013-08-11 06:55:00,
2013-08-11 03:00:00,68.3,66.5,30.11,West,279,0.0,0.0,94,0.00,,,0.00,Wunderground v.1.15,2013-08-11 07:00:00,
2013-08-11 03:10:00,68.2,66.4,30.11,West,279,0.0,0.0,94,0.00,,,0.00,Wunderground v.1.15,2013-08-11 07:10:00,
2013-08-11 03:15:00,68.2,66.4,30.11,West,279,0.0,0.0,94,0.00,,,0.00,Wunderground v.1.15,2013-08-11 07:15:00,
2013-08-11 03:25:00,68.2,66.4,30.11,West,279,0.0,0.0,94,0.00,,,0.00,Wunderground v.1.15,2013-08-11 07:25:00,
2013-08-11 03:35:00,68.1,66.3,30.11,West,279,0.0,0.0,94,0.00,,,0.00,Wunderground v.1.15,2013-08-11 07:35:00,
2013-08-11 03:40:00,68.1,66.3,30.11,West,279,0.0,0.0,94,0.00,,,0.00,Wunderground v.1.15,2013-08-11 07:40:00,
2013-08-11 03:45:00,68.1,66.3,30.11,West,279,0.0,0.0,94,0.00,,,0.00,Wunderground v.1.15,2013-08-11 07:45:00,
2013-08-11 03:55:00,68.0,66.2,30.11,West,279,0.0,0.0,94,0.00,,,0.00,Wunderground v.1.15,2013-08-11 07:55:00,
2013-08-11 04:00:00,67.9,66.1,30.11,West,279,0.0,0.0,94,0.00,,,0.00,Wunderground v.1.15,2013-08-11 08:00:00,
2013-08-11 04:05:00,67.9,66.1,30.11,West,279,0.0,0.0,94,0.00,,,0.00,Wunderground v.1.15,2013-08-11 08:05:00,
2013-08-11 04:10:00,67.9,66.1,30.11,West,279,0.0,0.0,94,0.00,,,0.00,Wunderground v.1.15,2013-08-11 08:10:00,
2013-08-11 04:15:00,67.9,66.1,30.11,West,279,0.0,0.0,94,0.00,,,0.00,Wunderground v.1.15,2013-08-11 08:15:00,
2013-08-11 04:25:00,67.9,66.1,30.11,West,279,0.0,0.0,94,0.00,,,0.00,Wunderground v.1.15,2013-08-11 08:25:00,
2013-08-11 04:30:00,67.9,66.1,30.11,West,279,0.0,0.0,94,0.00,,,0.00,Wunderground v.1.15,2013-08-11 08:30:00,
2013-08-11 04:40:00,67.9,66.1,30.12,West,279,0.0,0.0,94,0.00,,,0.00,Wunderground v.1.15,2013-08-11 08:40:00,
2013-08-11 04:45:00,67.9,66.1,30.12,West,279,0.0,0.0,94,0.00,,,0.00,Wunderground v.1.15,2013-08-11 08:45:00,
2013-08-11 04:55:00,68.0,66.2,30.12,West,279,0.0,0.0,94,0.00,,,0.00,Wunderground v.1.15,2013-08-11 08:55:00,
2013-08-11 05:05:00,68.0,66.2,30.12,West,279,0.0,0.0,94,0.00,,,0.00,Wunderground v.1.15,2013-08-11 09:05:00,
2013-08-11 05:10:00,68.0,66.2,30.11,West,279,0.0,0.0,94,0.00,,,0.00,Wunderground v.1.15,2013-08-11 09:10:00,
2013-08-11 05:15:00,68.0,66.2,30.11,West,279,0.0,0.0,94,0.00,,,0.00,Wunderground v.1.15,2013-08-11 09:15:00,
2013-08-11 05:25:00,68.1,66.3,30.11,West,279,0.0,0.0,94,0.00,,,0.00,Wunderground v.1.15,2013-08-11 09:25:00,
2013-08-11 05:30:00,68.1,66.3,30.11,West,279,0.0,0.0,94,0.00,,,0.00,Wunderground v.1.15,2013-08-11 09:30:00,
2013-08-11 05:40:00,68.0,66.2,30.11,West,279,0.0,0.0,94,0.00,,,0.00,Wunderground v.1.15,2013-08-11 09:40:00,
2013-08-11 05:45:00,68.1,66.3,30.11,West,279,0.0,0.0,94,0.00,,,0.00,Wunderground v.1.15,2013-08-11 09:45:00,
2013-08-11 05:50:00,68.1,66.3,30.11,West,279,0.0,0.0,94,0.00,,,0.00,Wunderground v.1.15,2013-08-11 09:50:00,
2013-08-11 05:55:00,68.0,66.2,30.11,West,279,0.0,0.0,94,0.00,,,0.00,Wunderground v.1.15,2013-08-11 09:55:00,
2013-08-11 06:00:00,68.0,66.2,30.11,West,279,0.0,0.0,94,0.00,,,0.00,Wunderground v.1.15,2013-08-11 10:00:00,
2013-08-11 06:10:00,68.0,66.2,30.12,West,279,0.0,0.0,94,0.00,,,0.00,Wunderground v.1.15,2013-08-11 10:10:00,
2013-08-11 06:15:00,68.0,66.2,30.12,West,279,0.0,0.0,94,0.00,,,0.00,Wunderground v.1.15,2013-08-11 10:15:00,
2013-08-11 06:20:00,67.9,66.1,30.12,West,279,0.0,0.0,94,0.00,,,0.00,Wunderground v.1.15,2013-08-11 10:20:00,
2013-08-11 06:25:00,67.9,66.1,30.12,West,279,0.0,0.0,94,0.00,,,0.00,Wunderground v.1.15,2013-08-11 10:25:00,
2013-08-11 06:30:00,67.9,66.1,30.12,West,279,0.0,0.0,94,0.00,,,0.00,Wunderground v.1.15,2013-08-11 10:30:00,
2013-08-11 06:40:00,67.9,66.1,30.13,West,279,0.0,0.0,94,0.00,,,0.00,Wunderground v.1.15,2013-08-11 10:40:00,
2013-08-11 06:45:00,68.0,66.2,30.13,West,279,0.0,0.0,94,0.00,,,0.00,Wunderground v.1.15,2013-08-11 10:45:00,
2013-08-11 06:55:00,67.9,66.1,30.13,West,279,0.0,0.0,94,0.00,,,0.00,Wunderground v.1.15,2013-08-11 10:55:00,
2013-08-11 07:00:00,67.9,66.1,30.13,West,279,0.0,0.0,94,0.00,,,0.00,Wunderground v.1.15,2013-08-11 11:00:00,
2013-08-11 07:10:00,67.9,66.1,30.13,West,279,0.0,0.0,94,0.00,,,0.00,Wunderground v.1.15,2013-08-11 11:10:00,
2013-08-11 07:20:00,68.0,66.2,30.13,West,279,0.0,0.0,94,0.00,,,0.00,Wunderground v.1.15,2013-08-11 11:20:00,
2013-08-11 07:25:00,68.0,66.2,30.13,West,279,0.0,0.0,94,0.00,,,0.00,Wunderground v.1.15,2013-08-11 11:25:00,
2013-08-11 07:30:00,68.1,66.3,30.13,West,279,0.0,0.0,94,0.00,,,0.00,Wunderground v.1.15,2013-08-11 11:30:00,
2013-08-11 07:35:00,68.1,66.6,30.13,West,279,0.0,0.0,95,0.00,,,0.00,Wunderground v.1.15,2013-08-11 11:35:00,
2013-08-11 07:40:00,68.1,66.6,30.13,West,279,0.0,0.0,95,0.00,,,0.00,Wunderground v.1.15,2013-08-11 11:40:00,
2013-08-11 07:45:00,68.3,66.8,30.13,West,279,0.0,0.0,95,0.00,,,0.00,Wunderground v.1.15,2013-08-11 11:45:00,
2013-08-11 07:55:00,68.4,66.9,30.14,West,279,0.0,0.0,95,0.00,,,0.00,Wunderground v.1.15,2013-08-11 11:55:00,
2013-08-11 08:00:00,68.4,66.9,30.14,West,279,0.0,0.0,95,0.00,,,0.00,Wunderground v.1.15,2013-08-11 12:00:00,
2013-08-11 08:10:00,68.5,67.0,30.14,West,279,0.0,0.0,95,0.00,,,0.00,Wunderground v.1.15,2013-08-11 12:10:00,
2013-08-11 08:15:00,68.5,67.0,30.14,West,279,0.0,0.0,95,0.00,,,0.00,Wunderground v.1.15,2013-08-11 12:15:00,
2013-08-11 08:20:00,68.6,67.1,30.14,West,279,0.0,0.0,95,0.00,,,0.00,Wunderground v.1.15,2013-08-11 12:20:00,
2013-08-11 08:25:00,68.6,67.1,30.15,West,279,0.0,0.0,95,0.00,,,0.00,Wunderground v.1.15,2013-08-11 12:25:00,
2013-08-11 08:30:00,68.6,67.1,30.15,West,279,0.0,0.0,95,0.00,,,0.00,Wunderground v.1.15,2013-08-11 12:30:00,
2013-08-11 08:40:00,68.8,67.3,30.15,West,279,0.0,0.0,95,0.00,,,0.00,Wunderground v.1.15,2013-08-11 12:40:00,
2013-08-11 08:45:00,69.0,67.5,30.15,West,279,0.0,0.0,95,0.00,,,0.00,Wunderground v.1.15,2013-08-11 12:45:00,
2013-08-11 08:55:00,69.3,67.8,30.15,West,279,0.0,0.0,95,0.00,,,0.00,Wunderground v.1.15,2013-08-11 12:55:00,
2013-08-11 09:00:00,69.5,68.0,30.16,West,279,0.0,0.0,95,0.00,,,0.00,Wunderground v.1.15,2013-08-11 13:00:00,
2013-08-11 09:05:00,69.6,68.1,30.15,West,279,0.0,0.0,95,0.00,,,0.00,Wunderground v.1.15,2013-08-11 13:05:00,
2013-08-11 09:10:00,69.5,68.0,30.15,West,279,0.0,0.0,95,0.00,,,0.00,Wunderground v.1.15,2013-08-11 13:10:00,
2013-08-11 09:20:00,69.8,68.3,30.15,West,279,0.0,2.0,95,0.00,,,0.00,Wunderground v.1.15,2013-08-11 13:20:00,
2013-08-11 09:25:00,69.7,68.2,30.15,WNW,286,1.0,2.0,95,0.00,,,0.00,Wunderground v.1.15,2013-08-11 13:25:00,
2013-08-11 09:30:00,69.5,68.0,30.15,West,276,1.0,1.0,95,0.00,,,0.00,Wunderground v.1.15,2013-08-11 13:30:00,
2013-08-11 09:40:00,69.8,68.0,30.15,West,276,0.0,0.0,94,0.00,,,0.00,Wunderground v.1.15,2013-08-11 13:40:00,
2013-08-11 09:45:00,69.9,68.1,30.15,West,276,0.0,0.0,94,0.00,,,0.01,Wunderground v.1.15,2013-08-11 13:45:00,
2013-08-11 09:50:00,70.0,68.2,30.15,West,276,0.0,0.0,94,0.10,,,0.01,Wunderground v.1.15,2013-08-11 13:50:00,
2013-08-11 09:55:00,70.0,68.2,30.15,West,276,0.0,0.0,94,0.19,,,0.03,Wunderground v.1.15,2013-08-11 13:55:00,
2013-08-11 10:00:00,69.9,68.1,30.15,West,276,0.0,0.0,94,0.31,,,0.05,Wunderground v.1.15,2013-08-11 14:00:00,
2013-08-11 10:10:00,69.9,68.1,30.15,West,276,0.0,0.0,94,0.18,,,0.09,Wunderground v.1.15,2013-08-11 14:10:00,
2013-08-11 10:15:00,69.8,68.0,30.15,West,276,0.0,0.0,94,0.12,,,0.10,Wunderground v.1.15,2013-08-11 14:15:00,
2013-08-11 10:25:00,69.9,68.1,30.15,West,276,0.0,0.0,94,0.06,,,0.10,Wunderground v.1.15,2013-08-11 14:25:00,
2013-08-11 10:30:00,69.9,68.1,30.14,West,276,0.0,0.0,94,0.04,,,0.10,Wunderground v.1.15,2013-08-11 14:30:00,
2013-08-11 10:35:00,69.9,68.1,30.14,West,276,0.0,0.0,94,0.00,,,0.11,Wunderground v.1.15,2013-08-11 14:35:00,
2013-08-11 10:40:00,70.1,68.3,30.14,West,276,0.0,0.0,94,0.00,,,0.11,Wunderground v.1.15,2013-08-11 14:40:00,
2013-08-11 10:50:00,70.5,68.7,30.14,West,276,0.0,0.0,94,0.00,,,0.11,Wunderground v.1.15,2013-08-11 14:50:00,
2013-08-11 10:55:00,70.6,68.8,30.14,West,276,0.0,0.0,94,0.04,,,0.12,Wunderground v.1.15,2013-08-11 14:55:00,
2013-08-11 11:00:00,70.7,68.9,30.14,West,276,0.0,0.0,94,0.04,,,0.12,Wunderground v.1.15,2013-08-11 15:00:00,
2013-08-11 11:10:00,71.1,69.3,30.14,West,276,0.0,0.0,94,0.00,,,0.12,Wunderground v.1.15,2013-08-11 15:10:00,
2013-08-11 11:15:00,71.3,69.5,30.15,West,276,0.0,0.0,94,0.00,,,0.12,Wunderground v.1.15,2013-08-11 15:15:00,
2013-08-11 11:25:00,71.7,69.9,30.14,West,276,0.0,1.0,94,0.00,,,0.12,Wunderground v.1.15,2013-08-11 15:25:00,
2013-08-11 11:30:00,71.8,70.0,30.14,West,276,0.0,0.0,94,0.00,,,0.12,Wunderground v.1.15,2013-08-11 15:30:00,
2013-08-11 11:40:00,71.9,70.1,30.14,WNW,294,0.0,0.0,94,0.00,,,0.12,Wunderground v.1.15,2013-08-11 15:40:00,
2013-08-11 11:45:00,72.2,70.4,30.14,WNW,294,0.0,0.0,94,0.00,,,0.12,Wunderground v.1.15,2013-08-11 15:45:00,
2013-08-11 11:55:00,72.4,70.6,30.14,NNW,340,0.0,0.0,94,0.00,,,0.12,Wunderground v.1.15,2013-08-11 15:55:00,
2013-08-11 12:05:00,72.8,70.7,30.14,NNW,340,0.0,0.0,93,0.00,,,0.12,Wunderground v.1.15,2013-08-11 16:05:00,
2013-08-11 12:10:00,72.9,70.8,30.14,NNW,340,0.0,1.0,93,0.00,,,0.12,Wunderground v.1.15,2013-08-11 16:10:00,
2013-08-11 12:25:00,73.1,70.6,30.14,SW,218,1.0,1.0,92,0.00,,,0.12,Wunderground v.1.15,2013-08-11 16:25:00,
2013-08-11 12:30:00,73.2,70.4,30.13,NW,313,1.0,1.0,91,0.00,,,0.12,Wunderground v.1.15,2013-08-11 16:30:00,
2013-08-11 12:40:00,73.6,71.1,30.12,West,267,1.0,1.0,92,0.00,,,0.12,Wunderground v.1.15,2013-08-11 16:40:00,
2013-08-11 12:45:00,73.8,71.0,30.12,WNW,293,0.0,1.0,91,0.00,,,0.12,Wunderground v.1.15,2013-08-11 16:45:00,
2013-08-11 12:55:00,74.1,71.3,30.13,North,355,0.0,0.0,91,0.00,,,0.13,Wunderground v.1.15,2013-08-11 16:55:00,
2013-08-11 13:05:00,74.0,71.2,30.13,North,5,1.0,1.0,91,0.00,,,0.13,Wunderground v.1.15,2013-08-11 17:05:00,
2013-08-11 13:10:00,74.2,71.4,30.13,WNW,290,1.0,3.0,91,0.00,,,0.13,Wunderground v.1.15,2013-08-11 17:10:00,
2013-08-11 13:15:00,74.4,71.6,30.12,WNW,296,1.0,3.0,91,0.00,,,0.13,Wunderground v.1.15,2013-08-11 17:15:00,
2013-08-11 13:30:00,75.4,72.3,30.11,NW,311,1.0,1.0,90,0.00,,,0.13,Wunderground v.1.15,2013-08-11 17:30:00,
2013-08-11 13:40:00,76.1,72.6,30.11,NNE,18,1.0,1.0,89,0.00,,,0.13,Wunderground v.1.15,2013-08-11 17:40:00,
2013-08-11 13:45:00,76.3,72.8,30.11,NNW,327,1.0,1.0,89,0.00,,,0.13,Wunderground v.1.15,2013-08-11 17:45:00,
2013-08-11 13:50:00,75.8,72.0,30.11,NNW,327,1.0,1.0,88,0.00,,,0.13,Wunderground v.1.15,2013-08-11 17:50:00,
2013-08-11 13:55:00,75.5,71.7,30.11,NNW,344,1.0,1.0,88,0.00,,,0.13,Wunderground v.1.15,2013-08-11 17:55:00,
2013-08-11 14:00:00,75.4,71.9,30.10,NE,52,1.0,1.0,89,0.00,,,0.13,Wunderground v.1.15,2013-08-11 18:00:00,
2013-08-11 14:10:00,75.9,72.4,30.10,West,279,0.0,0.0,89,0.00,,,0.13,Wunderground v.1.15,2013-08-11 18:10:00,
2013-08-11 14:15:00,76.4,72.6,30.09,WNW,289,1.0,1.0,88,0.00,,,0.13,Wunderground v.1.15,2013-08-11 18:15:00,
2013-08-11 14:20:00,77.3,73.8,30.09,NNW,329,1.0,2.0,89,0.00,,,0.13,Wunderground v.1.15,2013-08-11 18:20:00,
2013-08-11 14:25:00,77.4,72.5,30.09,WNW,284,2.0,6.0,85,0.00,,,0.13,Wunderground v.1.15,2013-08-11 18:25:00,
2013-08-11 14:35:00,77.6,72.4,30.09,NW,304,4.0,6.0,84,0.00,,,0.13,Wunderground v.1.15,2013-08-11 18:35:00,
2013-08-11 14:40:00,78.4,74.2,30.08,NW,307,2.0,4.0,87,0.00,,,0.13,Wunderground v.1.15,2013-08-11 18:40:00,
2013-08-11 14:45:00,78.1,72.5,30.08,NW,306,1.0,4.0,83,0.00,,,0.13,Wunderground v.1.15,2013-08-11 18:45:00,
2013-08-11 14:55:00,77.3,72.8,30.08,NNW,328,0.0,1.0,86,0.00,,,0.13,Wunderground v.1.15,2013-08-11 18:55:00,
2013-08-11 15:00:00,77.1,73.3,30.07,WSW,242,0.0,0.0,88,0.00,,,0.13,Wunderground v.1.15,2013-08-11 19:00:00,
2013-08-11 15:10:00,76.8,73.3,30.07,WSW,243,0.0,0.0,89,0.00,,,0.13,Wunderground v.1.15,2013-08-11 19:10:00,
2013-08-11 15:20:00,77.4,72.5,30.07,NNW,335,2.0,2.0,85,0.00,,,0.13,Wunderground v.1.15,2013-08-11 19:20:00,
2013-08-11 15:25:00,77.4,72.5,30.07,NNW,330,1.0,2.0,85,0.00,,,0.13,Wunderground v.1.15,2013-08-11 19:25:00,
2013-08-11 15:30:00,77.7,73.2,30.07,NNW,330,0.0,0.0,86,0.00,,,0.13,Wunderground v.1.15,2013-08-11 19:30:00,
2013-08-11 15:40:00,77.5,72.3,30.07,NNW,335,1.0,1.0,84,0.00,,,0.13,Wunderground v.1.15,2013-08-11 19:40:00,
2013-08-11 15:45:00,77.3,72.8,30.07,NNW,335,0.0,1.0,86,0.00,,,0.13,Wunderground v.1.15,2013-08-11 19:45:00,
2013-08-11 15:55:00,76.7,72.9,30.06,NNW,335,0.0,0.0,88,0.00,,,0.13,Wunderground v.1.15,2013-08-11 19:55:00,
2013-08-11 16:00:00,76.4,72.6,30.06,NNW,335,0.0,0.0,88,0.00,,,0.13,Wunderground v.1.15,2013-08-11 20:00:00,
2013-08-11 16:10:00,75.8,72.3,30.06,NW,321,0.0,0.0,89,0.00,,,0.13,Wunderground v.1.15,2013-08-11 20:10:00,
2013-08-11 16:20:00,77.1,73.3,30.05,WSW,257,1.0,1.0,88,0.00,,,0.13,Wunderground v.1.15,2013-08-11 20:20:00,
2013-08-11 16:30:00,77.9,73.7,30.05,NW,306,1.0,1.0,87,0.00,,,0.13,Wunderground v.1.15,2013-08-11 20:30:00,
2013-08-11 16:40:00,79.3,74.7,30.04,West,281,1.0,1.0,86,0.00,,,0.13,Wunderground v.1.15,2013-08-11 20:40:00,
2013-08-11 16:55:00,80.2,73.8,30.04,NW,325,1.0,1.0,81,0.00,,,0.13,Wunderground v.1.15,2013-08-11 20:55:00,
2013-08-11 17:00:00,80.1,74.1,30.04,NW,325,0.0,0.0,82,0.00,,,0.13,Wunderground v.1.15,2013-08-11 21:00:00,
2013-08-11 17:05:00,79.9,73.5,30.04,NW,325,0.0,0.0,81,0.00,,,0.13,Wunderground v.1.15,2013-08-11 21:05:00,
2013-08-11 17:10:00,79.4,74.1,30.04,WNW,288,0.0,0.0,84,0.00,,,0.13,Wunderground v.1.15,2013-08-11 21:10:00,
2013-08-11 17:25:00,77.9,73.4,30.04,WNW,288,0.0,0.0,86,0.00,,,0.13,Wunderground v.1.15,2013-08-11 21:25:00,
2013-08-11 17:30:00,77.8,73.6,30.05,WNW,288,0.0,0.0,87,0.00,,,0.13,Wunderground v.1.15,2013-08-11 21:30:00,
2013-08-11 17:40:00,77.3,73.5,30.04,WNW,288,0.0,0.0,88,0.00,,,0.13,Wunderground v.1.15,2013-08-11 21:40:00,
2013-08-11 17:50:00,77.5,73.7,30.04,WNW,288,0.0,0.0,88,0.00,,,0.13,Wunderground v.1.15,2013-08-11 21:50:00,
2013-08-11 17:55:00,78.2,74.4,30.04,WNW,288,0.0,0.0,88,0.00,,,0.13,Wunderground v.1.15,2013-08-11 21:55:00,
2013-08-11 18:00:00,78.5,74.6,30.04,WNW,283,0.0,0.0,88,0.00,,,0.13,Wunderground v.1.15,2013-08-11 22:00:00,
2013-08-11 18:10:00,78.5,74.3,30.04,West,275,0.0,0.0,87,0.00,,,0.13,Wunderground v.1.15,2013-08-11 22:10:00,
2013-08-11 18:25:00,77.2,73.0,30.04,West,275,0.0,0.0,87,0.00,,,0.13,Wunderground v.1.15,2013-08-11 22:25:00,
2013-08-11 18:30:00,76.8,72.6,30.04,West,275,0.0,0.0,87,0.00,,,0.13,Wunderground v.1.15,2013-08-11 22:30:00,
2013-08-11 18:40:00,76.3,72.5,30.04,West,275,0.0,0.0,88,0.00,,,0.13,Wunderground v.1.15,2013-08-11 22:40:00,
2013-08-11 18:45:00,76.1,72.3,30.04,West,275,0.0,0.0,88,0.00,,,0.13,Wunderground v.1.15,2013-08-11 22:45:00,
2013-08-11 18:50:00,75.9,72.4,30.04,West,275,0.0,0.0,89,0.00,,,0.13,Wunderground v.1.15,2013-08-11 22:50:00,
2013-08-11 18:55:00,75.7,72.2,30.04,West,275,0.0,0.0,89,0.00,,,0.13,Wunderground v.1.15,2013-08-11 22:55:00,
2013-08-11 19:00:00,75.6,72.1,30.04,West,275,0.0,0.0,89,0.00,,,0.13,Wunderground v.1.15,2013-08-11 23:00:00,
2013-08-11 19:10:00,75.5,72.0,30.05,West,275,0.0,0.0,89,0.00,,,0.13,Wunderground v.1.15,2013-08-11 23:10:00,
2013-08-11 19:15:00,75.4,71.9,30.05,West,275,0.0,0.0,89,0.00,,,0.13,Wunderground v.1.15,2013-08-11 23:15:00,
2013-08-11 19:20:00,75.3,71.8,30.05,West,275,0.0,0.0,89,0.00,,,0.13,Wunderground v.1.15,2013-08-11 23:20:00,
2013-08-11 19:25:00,75.1,72.0,30.05,West,275,0.0,0.0,90,0.00,,,0.13,Wunderground v.1.15,2013-08-11 23:25:00,
2013-08-11 19:30:00,75.0,71.9,30.05,West,275,0.0,0.0,90,0.00,,,0.13,Wunderground v.1.15,2013-08-11 23:30:00,
2013-08-11 19:40:00,74.8,71.7,30.05,West,275,0.0,0.0,90,0.00,,,0.13,Wunderground v.1.15,2013-08-11 23:40:00,
2013-08-11 19:50:00,74.7,71.6,30.05,West,275,0.0,0.0,90,0.00,,,0.13,Wunderground v.1.15,2013-08-11 23:50:00,
2013-08-11 19:55:00,74.5,71.4,30.05,West,275,0.0,0.0,90,0.00,,,0.13,Wunderground v.1.15,2013-08-11 23:55:00,
2013-08-11 20:00:00,74.5,71.4,30.05,West,275,0.0,0.0,90,0.00,,,0.13,Wunderground v.1.15,2013-08-12 00:00:00,
2013-08-11 20:15:00,74.1,71.0,30.06,West,275,0.0,0.0,90,0.00,,,0.13,Wunderground v.1.15,2013-08-12 00:15:00,
2013-08-11 20:20:00,74.0,70.9,30.05,West,275,0.0,0.0,90,0.00,,,0.13,Wunderground v.1.15,2013-08-12 00:20:00,
2013-08-11 20:25:00,73.9,71.1,30.06,West,275,0.0,0.0,91,0.00,,,0.13,Wunderground v.1.15,2013-08-12 00:25:00,
2013-08-11 20:30:00,73.7,70.9,30.06,West,275,0.0,0.0,91,0.00,,,0.13,Wunderground v.1.15,2013-08-12 00:30:00,
2013-08-11 20:40:00,73.5,70.7,30.07,West,275,0.0,0.0,91,0.00,,,0.13,Wunderground v.1.15,2013-08-12 00:40:00,
2013-08-11 20:45:00,73.5,70.7,30.07,West,275,0.0,0.0,91,0.00,,,0.13,Wunderground v.1.15,2013-08-12 00:45:00,
2013-08-11 20:50:00,73.4,70.6,30.07,West,275,0.0,0.0,91,0.00,,,0.13,Wunderground v.1.15,2013-08-12 00:50:00,
2013-08-11 20:55:00,73.4,70.6,30.07,West,275,0.0,0.0,91,0.40,,,0.16,Wunderground v.1.15,2013-08-12 00:55:00,
2013-08-11 21:00:00,73.3,70.5,30.07,West,275,0.0,1.0,91,0.13,,,0.17,Wunderground v.1.15,2013-08-12 01:00:00,
2013-08-11 21:10:00,72.6,69.8,30.07,WNW,292,1.0,1.0,91,0.05,,,0.17,Wunderground v.1.15,2013-08-12 01:10:00,
2013-08-11 21:15:00,72.2,69.1,30.07,NW,315,1.0,1.0,90,0.04,,,0.17,Wunderground v.1.15,2013-08-12 01:15:00,
2013-08-11 21:20:00,71.9,69.1,30.07,NW,315,0.0,0.0,91,0.14,,,0.19,Wunderground v.1.15,2013-08-12 01:20:00,
2013-08-11 21:25:00,71.7,68.9,30.07,NW,315,0.0,0.0,91,0.11,,,0.19,Wunderground v.1.15,2013-08-12 01:25:00,
2013-08-11 21:35:00,70.9,68.1,30.07,NW,315,0.0,0.0,91,0.04,,,0.19,Wunderground v.1.15,2013-08-12 01:35:00,
2013-08-11 21:40:00,70.7,67.9,30.08,NW,315,0.0,0.0,91,0.00,,,0.19,Wunderground v.1.15,2013-08-12 01:40:00,
2013-08-11 21:50:00,70.3,67.5,30.09,NW,315,0.0,0.0,91,0.00,,,0.19,Wunderground v.1.15,2013-08-12 01:50:00,
2013-08-11 21:55:00,70.2,67.4,30.09,NW,315,0.0,0.0,91,0.00,,,0.19,Wunderground v.1.15,2013-08-12 01:55:00,
2013-08-11 22:00:00,70.1,67.7,30.09,NW,315,0.0,0.0,92,0.00,,,0.19,Wunderground v.1.15,2013-08-12 02:00:00,
2013-08-11 22:10:00,69.9,67.5,30.09,NW,315,0.0,0.0,92,0.00,,,0.19,Wunderground v.1.15,2013-08-12 02:10:00,
2013-08-11 22:15:00,69.9,67.5,30.09,NW,315,0.0,0.0,92,0.00,,,0.19,Wunderground v.1.15,2013-08-12 02:15:00,
2013-08-11 22:25:00,69.9,67.5,30.09,NW,315,0.0,0.0,92,0.00,,,0.19,Wunderground v.1.15,2013-08-12 02:25:00,
2013-08-11 22:30:00,69.9,67.5,30.09,NW,315,0.0,0.0,92,0.00,,,0.19,Wunderground v.1.15,2013-08-12 02:30:00,
2013-08-11 22:40:00,70.0,67.9,30.09,NW,315,0.0,0.0,93,0.00,,,0.20,Wunderground v.1.15,2013-08-12 02:40:00,
2013-08-11 22:45:00,69.9,67.8,30.08,NW,315,0.0,0.0,93,0.00,,,0.20,Wunderground v.1.15,2013-08-12 02:45:00,
2013-08-11 22:55:00,70.0,67.9,30.09,NW,315,0.0,0.0,93,0.00,,,0.20,Wunderground v.1.15,2013-08-12 02:55:00,
2013-08-11 23:05:00,69.9,67.8,30.09,NW,315,0.0,0.0,93,0.00,,,0.20,Wunderground v.1.15,2013-08-12 03:05:00,
2013-08-11 23:10:00,69.9,67.8,30.09,NW,315,0.0,0.0,93,0.00,,,0.20,Wunderground v.1.15,2013-08-12 03:10:00,
2013-08-11 23:15:00,69.9,67.8,30.08,NW,315,0.0,0.0,93,0.00,,,0.20,Wunderground v.1.15,2013-08-12 03:15:00,
2013-08-11 23:25:00,69.9,67.8,30.09,NW,315,0.0,0.0,93,0.00,,,0.20,Wunderground v.1.15,2013-08-12 03:25:00,
2013-08-11 23:30:00,69.9,67.8,30.08,NW,315,0.0,0.0,93,0.00,,,0.20,Wunderground v.1.15,2013-08-12 03:30:00,
2013-08-11 23:40:00,69.9,67.8,30.08,NW,315,0.0,0.0,93,0.00,,,0.20,Wunderground v.1.15,2013-08-12 03:40:00,
2013-08-11 23:50:00,69.9,67.8,30.08,NW,315,0.0,0.0,93,0.00,,,0.20,Wunderground v.1.15,2013-08-12 03:50:00,